Flag for Canada Weather past 2 weeks in Quispamsis, New Brunswick, Canada

18 °F


Feels Like: 3 °F
Forecast: 14 / 25 °F
Wind: 15 mph from North

Location: Saint John

Current Time: Nov 30, 2015 at 4:11:11 AM

Latest Report: Nov 30, 2015 at 3:00 AM

Visibility: 15 mi

Pressure: 30.41 "Hg

Humidity: 68%

Dew point: 9 °F

Location of QuispamsisLocation

Historic Weather in Quispamsis — Graph


Quispamsis temperature yesterday

Maximum temperature yesterday: 30 °F (at 1:00 AM)
Minimum temperature yesterday: 21 °F (at 10:00 PM)
Average temperature yesterday: 26 °F

Past Weeks' High & Low Weather Summary

High54 °F (Nov 22, 5:00 AM)100% (Nov 21, 11:00 PM)30.94 "Hg (Nov 21, 11:00 PM)
Low14 °F (Nov 25, 5:00 AM)40% (Nov 25, 3:00 PM)29.59 "Hg (Nov 23, 9:00 AM)
Average36 °F79%30.25 "Hg
* Reported Nov 15 3:00 AM — Nov 30 3:00 AM, Quispamsis, Weather by CustomWeather, © 2015

Note: Actual official high and low records may vary slightly from our data, if they occured in-between our weather recording intervals... More about our weather records


Quispamsis weather history for previous 24 hours

Time TempWeatherWind HumidityBarometerVisibility
3:00 AM
Mon, Nov 30
18 °FClear.15 mph68%30.41 "Hg15 mi
2:00 AM18 °FClear.12 mph68%30.39 "Hg15 mi
1:00 AM18 °FClear.10 mph68%30.38 "Hg15 mi
12:00 AM19 °FClear.13 mph63%30.36 "Hg15 mi
11:00 PM
Sun, Nov 29
21 °FClear.15 mph58%30.34 "Hg15 mi
10:00 PM21 °FClear.14 mph54%30.32 "Hg15 mi
9:00 PM23 °FPassing clouds.15 mph58%30.29 "Hg15 mi
8:00 PM23 °FPassing clouds.16 mph58%30.27 "Hg15 mi
7:00 PM25 °FPartly cloudy.15 mph69%30.24 "Hg15 mi
6:55 PM25 °FPartly cloudy.16 mph63%30.24 "Hg15 mi
6:00 PM27 °FPassing clouds.18 mph59%30.21 "Hg15 mi
5:00 PM27 °FPassing clouds.13 mph64%30.18 "Hg15 mi
4:00 PM28 °FBroken clouds.14 mph59%30.15 "Hg15 mi
3:00 PM28 °FPartly sunny.14 mph64%30.13 "Hg15 mi
2:00 PM28 °FPartly sunny.13 mph64%30.13 "Hg15 mi
1:00 PM30 °FPartly sunny.15 mph59%30.12 "Hg15 mi
12:00 PM30 °FPartly sunny.12 mph64%30.14 "Hg15 mi
11:00 AM28 °FPartly sunny.8 mph69%30.16 "Hg15 mi
10:00 AM25 °FPartly sunny.12 mph80%30.16 "Hg15 mi
9:00 AM23 °FPartly sunny.9 mph86%30.16 "Hg15 mi
8:00 AM23 °FPassing clouds.9 mph86%30.15 "Hg15 mi
7:00 AM23 °FPassing clouds.9 mph86%30.14 "Hg15 mi
6:00 AM23 °FPassing clouds.10 mph86%30.13 "Hg15 mi
5:00 AM23 °FPassing clouds.9 mph86%30.11 "Hg15 mi
4:00 AM27 °FOvercast.8 mph80%30.11 "Hg15 mi
Weather by CustomWeather, © 2015

See weather overviewHow to use our weather pages